CBERS 4

Last updated on Wed Sep 17 2025 00:02:31 GMT+0000 (Coordinated Universal Time)

1 40336U 14079A 25259.59830860 .00000102 00000+0 50260-4 0 9998 2 40336 98.3442 320.5337 0001941 75.3494 284.7907 14.35508324564702
UTC large
Height (km)
Speed (km/s)
/
Latitude / Longitude
Inclination (degrees)
Orbital Period (minutes)
Azimuth
Elevation
Range (km)
Doppler Factor

Next 0 passes for location: London (51.5072 / 0.1276)

Sorry there are no passes over London.